CZ-6A DEB, 54928

Orbit data source: Space-Track

CZ-6A DEB, 54928 is space debris in SSO originally from a launch on Fri, 11 Nov 2022 UTC launched from the Taiyaun Space Center, China (TSC). Debris objects in space refer to the collection of defunct objects orbiting the Earth. Examples of debris include non-operational satellites, rocket bodies, and fragments generated from explosions, collisions, or faulty payload assembly.

Loading next visibility...
Identifier
54928, 2022-151RR
Orbit
SSO
Country
Flag of CNCN / PRC
Related business
Manufacturer
SAST
Mission
Spacecraft
Bus & Motor
Unknown
Mass
Unknown
Launch date (UTC)
2022-11-11 (4 years ago)
Launch vehicle
Unknown
Launch site
Taiyaun Space Center, China (TSC)
Object type
Payload
Rocket body
Debris
Shape & HBR
Unknown shape, 0.1 m
Radar Cross Section
Medium (>0.1 m² and <1 m²)

Expand to show TLE details & history
Last TLE update: 19 hours ago

TLE from 19 hours ago
0 CZ-6A DEB
1 54928U 22151RR  26264.04443562  .00001266  00000-0  39661-3 0  9990
2 54928  98.6155 295.9910 0059473  83.7419 277.0540 14.41350222201652
Epoch: 2026-09-21T01:03Z
TLE epoch observation values (Epoch: 2026-09-21T01:03:59.237Z)
Latitude
0.00001°
Longitude
-79.93574°
Altitude
752.026 km
Speed
7.481 km/s
True Right ascension
19h 43m 57s
True Declination
0° 00' 00"
Sunlit
Object was in full shadow at epoch
Visualization orbit readout
Latitude
Unknown
Longitude
Unknown
Altitude
Unknown
Speed
Unknown
Apparent Right ascension
Unknown
Apparent Declination
Unknown
Sunlit
N/A
Visualization observer readout
Local Sidereal Time
13:11:07
Azimuth
Unknown
Elevation
Unknown
Doppler factor
Unknown
Orbital elements
Apogee altitude
793.566 km
Perigee altitude
708.766 km
Semi-major axis
7,129.303 km
Eccentricity
0.00595
Inclination
98.6155°
RAAN
295.991°
Arg. of periapsis
83.7419°
True anomaly
276.37705°
Mean anomaly
277.054°
Eccentric anomaly
276.71558°
Mean motion
3.60556 °/min
Orbital period
99.85 mins
BSTAR
0.00039661
Loading maneuver chart data...
Computing Atmospheric mass density...
Loading historical data...
Loading historical data...
Loading historical data...
Loading historical data...
Loading historical data...
Loading historical data...
Loading historical data...

Documentation

Showing up to 5 results
|